FW9312 Weather Reports


time (UTC)temp
F
wind
direction
speed
knots
gust
knots
rain 1hr
in
rain 24hr
in
rain mn
in
humidity
%
barometer
mb
20260504050259 44 250 0.0 0.9 0.00 0.00 0.00 75 1016.1
20260504045757 44 250 0.9 0.9 0.00 0.00 0.00 75 1016.3
20260504045256 43 253 0.0 0.0 0.00 0.00 0.00 79 1016.1
20260504044754 43 253 0.0 0.0 0.00 0.00 0.00 79 1016.1
20260504044252 42 253 0.0 0.0 0.00 0.00 0.00 80 1016.1
20260504043748 43 253 0.0 0.0 0.00 0.00 0.00 80 1016.1
20260504043245 43 253 0.0 0.0 0.00 0.00 0.00 80 1016.1
20260504042743 42 253 0.0 0.0 0.00 0.00 0.00 81 1016.0
20260504042239 42 253 0.0 0.0 0.00 0.00 0.00 82 1016.0
20260504041736 42 255 0.0 0.0 0.00 0.00 0.00 82 1015.8
20260504041232 42 251 0.0 0.0 0.00 0.00 0.00 82 1016.0
20260504040728 42 253 0.0 0.0 0.00 0.00 0.00 81 1015.8
20260504040226 42 251 0.0 0.0 0.00 0.00 0.00 80 1015.7
20260504035721 42 253 0.0 0.0 0.00 0.00 0.00 80 1015.8
20260504035219 42 253 0.0 0.0 0.00 0.00 0.00 79 1015.7
20260504034716 43 251 0.0 0.0 0.00 0.00 0.00 79 1015.7
20260504034213 43 253 0.0 0.0 0.00 0.00 0.00 79 1015.6
20260504033711 44 253 0.0 0.0 0.00 0.00 0.00 79 1015.8
20260504033208 43 251 0.0 0.0 0.00 0.00 0.00 78 1015.6
20260504032705 44 251 0.0 0.0 0.00 0.00 0.00 78 1015.5
20260504032202 44 253 0.0 0.0 0.00 0.00 0.00 78 1015.6
20260504031659 44 251 0.0 0.0 0.00 0.00 0.00 77 1015.7
20260504031155 44 251 0.0 0.0 0.00 0.00 0.00 74 1015.5
20260504030652 44 251 0.0 0.0 0.00 0.00 0.00 75 1015.5
20260504030149 45 253 0.0 0.0 0.00 0.00 0.00 74 1015.3
20260504025646 45 253 0.0 0.0 0.00 0.00 0.00 73 1015.2
20260504025142 46 253 0.0 0.0 0.00 0.00 0.00 71 1015.4
20260504024640 46 251 0.0 0.0 0.00 0.00 0.00 70 1015.4
20260504024136 46 253 0.0 0.0 0.00 0.00 0.00 71 1015.4
20260504023633 46 251 0.0 0.0 0.00 0.00 0.00 70 1015.4
20260504023129 46 253 0.0 0.0 0.00 0.00 0.00 68 1015.3
20260504022625 46 253 0.0 0.0 0.00 0.00 0.00 68 1015.4
20260504022121 47 253 0.0 0.0 0.00 0.00 0.00 68 1015.6
20260504021620 47 251 0.0 0.0 0.00 0.00 0.00 67 1015.2
20260504021116 47 253 0.0 0.0 0.00 0.00 0.00 67 1015.3
20260504020613 48 253 0.0 0.0 0.00 0.00 0.00 67 1015.2
20260504020109 48 251 0.0 0.0 0.00 0.00 0.00 62 1015.2
20260504015606 48 253 0.0 0.0 0.00 0.00 0.00 61 1015.1
20260504015102 49 253 0.0 0.0 0.00 0.00 0.00 61 1015.2
20260504014558 49 251 0.0 0.0 0.00 0.00 0.00 60 1015.0
20260504014055 49 253 0.0 0.0 0.00 0.00 0.00 59 1015.2
20260504013553 50 251 0.0 0.0 0.00 0.00 0.00 57 1015.1
20260504013049 50 253 0.0 0.0 0.00 0.00 0.00 56 1015.2
20260504012547 51 251 0.0 0.0 0.00 0.00 0.00 56 1015.0
20260504012045 51 251 0.0 0.0 0.00 0.00 0.00 55 1014.8
20260504011541 52 251 0.0 0.0 0.00 0.00 0.00 53 1014.9
20260504011037 52 251 0.0 0.0 0.00 0.00 0.00 52 1014.7
20260504010533 53 251 0.0 0.0 0.00 0.00 0.00 51 1014.9
20260504010029 53 251 0.0 0.0 0.00 0.00 0.00 47 1014.8
20260504005526 55 251 0.0 0.0 0.00 0.00 0.00 50 1014.7
20260504005024 56 251 0.0 0.0 0.00 0.00 0.00 46 1014.8
20260504004522 57 252 0.0 0.9 0.00 0.00 0.00 39 1014.6
20260504004018 57 252 0.0 0.9 0.00 0.00 0.00 38 1014.7
20260504003514 57 251 0.0 0.9 0.00 0.00 0.00 38 1014.5
20260504003011 57 247 0.0 0.0 0.00 0.00 0.00 39 1014.6
20260504002508 57 248 0.0 0.0 0.00 0.00 0.00 38 1014.5
20260504002006 58 249 0.0 0.0 0.00 0.00 0.00 37 1014.5
20260504001503 58 249 0.0 0.0 0.00 0.00 0.00 37 1014.4
20260504000959 59 250 0.0 0.0 0.00 0.00 0.00 36 1014.4
20260504000457 59 250 0.0 0.0 0.00 0.00 0.00 35 1014.4
20260503235954 60 279 1.7 1.7 0.00 0.00 0.00 34 1014.4
20260503235452 60 257 0.9 0.9 0.00 0.00 0.00 34 1014.4
20260503234948 60 265 1.7 1.7 0.00 0.00 0.00 34 1014.3
20260503234446 60 254 0.9 0.9 0.00 0.00 0.00 33 1014.2
20260503233944 61 266 3.5 3.5 0.00 0.00 0.00 33 1014.2
20260503233440 61 240 0.9 0.9 0.00 0.00 0.00 33 1014.2
20260503232937 61 316 2.6 2.6 0.00 0.00 0.00 32 1014.1
20260503232434 61 247 1.7 1.7 0.00 0.00 0.00 33 1014.2
20260503231932 61 234 1.7 2.6 0.00 0.00 0.00 32 1014.2
20260503231429 62 215 0.9 0.9 0.00 0.00 0.00 33 1014.1
20260503230925 62 260 1.7 2.6 0.00 0.00 0.00 32 1013.8
20260503230422 62 250 2.6 2.6 0.00 0.00 0.00 32 1013.9
20260503225920 62 244 0.0 0.0 0.00 0.00 0.00 32 1013.9
20260503225416 62 282 1.7 2.6 0.00 0.00 0.00 31 1013.8
20260503224912 63 238 2.6 3.5 0.00 0.00 0.00 30 1013.9
20260503224409 64 253 1.7 2.6 0.00 0.00 0.00 30 1013.9
20260503223906 64 255 1.7 1.7 0.00 0.00 0.00 30 1013.8
20260503223404 65 245 2.6 2.6 0.00 0.00 0.00 30 1013.9
20260503222859 65 274 0.9 1.7 0.00 0.00 0.00 30 1014.0
20260503222358 65 186 1.7 2.6 0.00 0.00 0.00 30 1014.1
20260503221856 65 224 1.7 1.7 0.00 0.00 0.00 29 1014.0
20260503221354 66 228 0.9 1.7 0.00 0.00 0.00 29 1014.1
20260503220850 65 242 0.0 0.9 0.00 0.00 0.00 31 1014.2
20260503220347 65 237 0.9 0.9 0.00 0.00 0.00 29 1014.2
20260503215844 64 240 1.7 2.6 0.00 0.00 0.00 30 1014.1
20260503215341 64 230 2.6 2.6 0.00 0.00 0.00 31 1014.3
20260503214838 64 280 3.5 3.5 0.00 0.00 0.00 30 1014.0
20260503214336 65 188 1.7 1.7 0.00 0.00 0.00 31 1014.1
20260503213833 66 247 3.5 5.2 0.00 0.00 0.00 29 1014.3
20260503213331 66 218 0.9 1.7 0.00 0.00 0.00 30 1014.3
20260503212827 65 223 2.6 3.5 0.00 0.00 0.00 30 1014.2
20260503212325 65 239 2.6 3.5 0.00 0.00 0.00 31 1014.1
20260503211822 65 243 1.7 1.7 0.00 0.00 0.00 30 1014.1
20260503211319 65 223 0.9 0.9 0.00 0.00 0.00 30 1014.2
20260503210819 65 195 5.2 7.8 0.00 0.00 0.00 29 1014.1
20260503210317 65 240 1.7 2.6 0.00 0.00 0.00 31 1014.1
20260503205812 66 285 2.6 2.6 0.00 0.00 0.00 29 1014.1
20260503205308 65 211 1.7 2.6 0.00 0.00 0.00 29 1014.0
20260503204805 65 245 1.7 3.5 0.00 0.00 0.00 30 1014.2
20260503204303 65 248 2.6 3.5 0.00 0.00 0.00 30 1014.2
20260503203800 65 267 1.7 3.5 0.00 0.00 0.00 30 1014.0
20260503203257 65 285 1.7 1.7 0.00 0.00 0.00 31 1014.1
20260503202754 65 279 1.7 2.6 0.00 0.00 0.00 29 1014.1
20260503202252 65 253 3.5 5.2 0.00 0.00 0.00 29 1014.1
20260503201749 66 232 2.6 3.5 0.00 0.00 0.00 28 1014.4
20260503201247 66 261 2.6 5.2 0.00 0.00 0.00 29 1014.4
20260503200744 65 206 1.7 1.7 0.00 0.00 0.00 29 1014.6
20260503200239 64 296 0.9 1.7 0.00 0.00 0.00 28 1014.6
20260503195737 63 308 2.6 5.2 0.00 0.00 0.00 30 1014.8
20260503195233 63 287 5.2 7.0 0.00 0.00 0.00 30 1015.0
20260503194732 64 271 2.6 2.6 0.00 0.00 0.00 30 1014.7
20260503194226 63 240 1.7 2.6 0.00 0.00 0.00 30 1014.9
20260503193723 63 251 1.7 1.7 0.00 0.00 0.00 30 1014.9
20260503193219 63 237 3.5 3.5 0.00 0.00 0.00 30 1015.1
20260503192715 62 241 3.5 3.5 0.00 0.00 0.00 31 1015.2
20260503192210 61 259 1.7 2.6 0.00 0.00 0.00 31 1015.1
20260503191707 61 229 1.7 2.6 0.00 0.00 0.00 32 1015.4
20260503191204 61 267 1.7 1.7 0.00 0.00 0.00 33 1015.2
20260503190701 61 219 0.9 0.9 0.00 0.00 0.00 32 1015.3
20260503190158 60 220 3.5 5.2 0.00 0.00 0.00 32 1015.4
20260503185655 60 260 1.7 3.5 0.00 0.00 0.00 33 1015.7
20260503185150 60 302 5.2 7.8 0.00 0.00 0.00 33 1015.5
20260503184645 60 236 7.8 11.3 0.00 0.00 0.00 31 1015.7
20260503184142 60 251 2.6 3.5 0.00 0.00 0.00 33 1015.4
20260503183638 60 264 2.6 3.5 0.00 0.00 0.00 34 1015.6
20260503183136 59 257 1.7 2.6 0.00 0.00 0.00 34 1015.8
20260503182634 59 249 5.2 6.1 0.00 0.00 0.00 35 1015.9
20260503182132 59 229 2.6 3.5 0.00 0.00 0.00 34 1016.0
20260503181629 59 331 0.9 0.9 0.00 0.00 0.00 35 1016.1
20260503181125 58 232 0.9 1.7 0.00 0.00 0.00 36 1016.0
20260503180622 59 206 2.6 3.5 0.00 0.00 0.00 36 1016.0
20260503180120 58 189 1.7 1.7 0.00 0.00 0.00 37 1016.1
20260503175617 59 252 0.9 1.7 0.00 0.00 0.00 36 1016.2
20260503175114 58 254 1.7 1.7 0.00 0.00 0.00 37 1016.2
20260503174611 59 193 4.3 5.2 0.00 0.00 0.00 37 1016.4
20260503174108 59 259 3.5 5.2 0.00 0.00 0.00 36 1016.5
20260503173602 58 248 2.6 2.6 0.00 0.00 0.00 37 1016.2
20260503173059 58 335 1.7 2.6 0.00 0.00 0.00 36 1016.3
20260503172556 57 279 3.5 7.0 0.00 0.00 0.00 38 1016.5
20260503172054 57 181 0.9 1.7 0.00 0.00 0.00 39 1016.3
20260503171550 57 234 3.5 5.2 0.00 0.00 0.00 38 1016.5
20260503171048 57 228 2.6 3.5 0.00 0.00 0.00 37 1016.4
20260503170544 57 231 1.7 2.6 0.00 0.00 0.00 38 1016.6
20260503150936 53 259 3.5 5.2 0.00 0.00 0.00 41 1017.6
20260503150433 54 232 3.5 5.2 0.00 0.00 0.00 42 1017.7
20260503131326 50 242 2.6 5.2 0.00 0.00 0.00 50 1018.0
20260503130823 50 250 0.9 1.7 0.00 0.00 0.00 50 1017.9
20260503130321 49 235 1.7 1.7 0.00 0.00 0.00 51 1018.0
20260503110714 41 278 0.0 0.9 0.00 0.00 0.00 68 1017.1
20260503110212 40 269 0.0 0.0 0.00 0.00 0.00 70 1017.1
20260503100138 40 250 0.0 0.9 0.00 0.00 0.00 71 1016.1
20260503081532 43 230 1.7 1.7 0.00 0.00 0.00 67 1015.4
20260503081030 43 237 0.9 1.7 0.00 0.00 0.00 68 1015.3
20260503080526 43 244 1.7 2.6 0.00 0.00 0.00 67 1015.1
20260503072500 44 265 2.6 3.5 0.00 0.00 0.00 66 1014.9
20260503071957 44 229 1.7 1.7 0.00 0.00 0.00 66 1014.8
20260503071454 44 244 3.5 5.2 0.00 0.00 0.00 67 1014.9
20260503070949 45 235 1.7 2.6 0.00 0.00 0.00 67 1014.7
20260503070447 45 210 0.9 1.7 0.00 0.00 0.00 67 1014.7